Location: *
(43.6428°N, 11.5461°E)
Time: 11:33:21
(UTC+00:00)

Cosmos 1908 - Pass Details

Date: 21 October 2019
Orbit: 511 x 532 km, 82.5° (Epoch: 20 November)

Event Time Altitude Azimuth Distance (km) Brightness Sun altitude
Rises 16:55:15 0° 173° (S) 2,659 6.8 -6.8°
Reaches altitude 10° 16:57:26 10° 167° (SSE) 1,772 5.9 -7.2°
Maximum altitude 17:01:10 46° 94° (E) 720 3.5 -7.9°
Drops below altitude 10° 17:04:55 10° 20° (NNE) 1,778 5.7 -8.6°
Sets 17:07:07 0° 15° (NNE) 2,668 6.6 -9.0°
